STARLINK-30524, 57965

Orbit data source: Space-Track

STARLINK-30524, 57965 is a payload satellite owned by SpaceX/Seattle (US) in LEO that was launched on Sat, 30 Sep 2023 UTC via an FALCON 9 launch vehicle from the Air Force Eastern Test Range (AFETR). Payload-class satellites include a variety of spacecraft equipped with specific instruments for various scientific and technological missions. These include communications satellites like Starlink; space stations such as the ISS; scientific satellites like the Hubble; Earth observation satellites from companies like Planet Labs, Umbra, and HawkEye 360; GPS; miniature CubeSats for education and research; and military/defense satellites.

Loading next visibility...
Identifier
57965, 2023-151B
Orbit
LEO
Country
Flag of USUS
Related business
Manufacturer
SpaceX/Seattle
Mission
Operational Commercial Communications
Bus & Motor
STARLINK V2M, Unknown motor
Mass
730 kg wet, ~700 kg dry
Launch date (UTC)
2023-09-30 (3 years ago)
Launch vehicle
FALCON 9
Launch site
Air Force Eastern Test Range (AFETR)
Object type
Payload
Rocket body
Debris
Shape & HBR
Box + 2 Pan, 17.7 m
Radar Cross Section
33.884 m², Large (>1 m²)

Expand to show TLE details & history
Last TLE update: 1 day ago

TLE from 1 day ago
0 STARLINK-30524
1 57965U 23151B   26175.07195703  .00002621  00000-0  10480-3 0  9994
2 57965  43.0018  95.4411 0001156 270.4639  89.6080 15.27564634152033
Epoch: 2026-06-24T01:43Z
TLE epoch observation values (Epoch: 2026-06-24T01:43:37.087Z)
Latitude
-0.00003°
Longitude
157.30212°
Altitude
482.865 km
Speed
7.626 km/s
True Right ascension
06h 21m 45s
True Declination
0° 00' 00"
Sunlit
Object was in daylight at epoch
Visualization orbit readout
Latitude
Unknown
Longitude
Unknown
Altitude
Unknown
Speed
Unknown
Apparent Right ascension
Unknown
Apparent Declination
Unknown
Sunlit
N/A
Visualization observer readout
Local Sidereal Time
13:38:13
Azimuth
Unknown
Elevation
Unknown
Doppler factor
Unknown
Orbital elements
Apogee altitude
485.833 km
Perigee altitude
484.247 km
Semi-major axis
6,863.177 km
Eccentricity
0.00012
Inclination
43.0018°
RAAN
95.4411°
Arg. of periapsis
270.4639°
True anomaly
89.62125°
Mean anomaly
89.608°
Eccentric anomaly
89.61462°
Mean motion
3.81729 °/min
Orbital period
94.31 mins
BSTAR
0.0001048
Loading maneuver chart data...
Computing Atmospheric mass density...
Loading historical data...
Loading historical data...
Loading historical data...
Loading historical data...
Loading historical data...
Loading historical data...
Loading historical data...

Documentation

Showing up to 5 results
|